Date String (YYYY-MM-DD hh:mm:ss) UTC,Instrument flags,Ambient pressure (hPa),Sample flow (lpm),Bypass flow (lpm),Sample temperature (°C),Ambient temperature (°C),ASC tube jacket temperature (°C),LED temperature (°C),Box temperature (°C),Sample RH (%),Span deviation,Mass concentration (μg/m³),Mass concentration (μg/m³),Mass concentration (μg/m³)
DateTimeUTC,F1_M11,P_M11,Q1_M11,Q2_M11,T1_M11,T2_M11,T3_M11,T4_M11,T5_M11,U1_M11,ZSPAN_M11,X0_M11,X2_M11,X1_M11
2022-07-03 20:00:00,,0824.2,5.00,0.00,29.3,28.3,00.0,38.0,31.4,25.9,0000.0,0008.72,0004.37,0003.77
2022-07-03 20:01:00,,0824.2,5.00,0.00,29.4,28.0,00.0,38.0,31.3,26.0,0000.0,0008.74,0004.36,0003.78
2022-07-03 20:02:00,,0824.2,5.00,0.00,29.3,27.4,00.0,37.9,31.2,26.2,0000.0,0008.99,0004.39,0003.78
2022-07-03 20:03:00,,0824.2,4.99,0.00,29.3,27.2,00.0,37.9,31.2,26.1,0000.0,0009.67,0004.42,0003.80
2022-07-03 20:04:00,,0824.1,4.99,0.00,29.3,27.3,00.0,37.9,31.1,26.3,0000.0,0009.75,0004.45,0003.81
2022-07-03 20:05:00,,0824.2,4.99,0.00,29.2,27.4,00.0,37.9,31.1,26.9,0000.0,0009.57,0004.46,0003.83
2022-07-03 20:06:00,,0824.1,5.00,0.00,29.2,27.6,00.0,38.0,31.1,26.6,0000.0,0009.70,0004.46,0003.86
2022-07-03 20:07:00,,0824.1,5.00,0.00,29.3,27.8,00.0,38.0,31.2,26.9,0000.0,0010.21,0004.49,0003.90
2022-07-03 20:08:00,,0824.1,5.01,0.00,29.3,28.0,00.0,38.0,31.3,26.3,0000.0,0010.21,0004.52,0003.92
2022-07-03 20:09:00,,0824.1,5.01,0.00,29.3,28.2,00.0,38.0,31.3,25.8,0000.0,0010.17,0004.51,0003.91
2022-07-03 20:10:00,,0824.1,5.00,0.00,29.4,28.0,00.0,38.0,31.3,25.8,0000.0,0010.08,0004.49,0003.90
2022-07-03 20:11:00,,0824.1,4.99,0.00,29.3,27.3,00.0,37.9,31.2,26.3,0000.0,0009.86,0004.48,0003.90
2022-07-03 20:12:00,,0824.1,5.01,0.00,29.3,27.1,00.0,37.9,31.1,25.2,0000.0,0009.69,0004.45,0003.90
2022-07-03 20:13:00,,0824.0,4.99,0.00,29.2,27.2,00.0,37.9,31.1,25.4,0000.0,0009.35,0004.41,0003.89
2022-07-03 20:14:00,,0824.0,5.00,0.00,29.2,27.3,00.0,37.9,31.1,25.3,0000.0,0008.76,0004.39,0003.88
2022-07-03 20:15:00,,0824.0,5.00,0.00,29.2,27.5,00.0,37.9,31.1,25.3,0000.0,0008.80,0004.39,0003.88
2022-07-03 20:16:00,,0824.0,5.00,0.00,29.2,27.7,00.0,38.0,31.2,25.3,0000.0,0009.41,0004.38,0003.86
2022-07-03 20:17:00,,0824.0,5.00,0.00,29.3,27.9,00.0,38.0,31.2,25.5,0000.0,0008.96,0004.36,0003.84
2022-07-03 20:18:00,,0824.1,5.00,0.00,29.3,28.1,00.0,38.0,31.3,25.2,0000.0,0008.50,0004.35,0003.82
2022-07-03 20:19:00,,0824.1,5.01,0.00,29.4,28.2,00.0,38.0,31.4,25.3,0000.0,0008.49,0004.30,0003.80
2022-07-03 20:20:00,,0824.1,5.00,0.00,29.4,27.7,00.0,38.0,31.3,25.0,0000.0,0009.07,0004.27,0003.78
2022-07-03 20:21:00,,0824.1,5.01,0.00,29.3,27.2,00.0,37.9,31.2,25.2,0000.0,0009.68,0004.24,0003.77
2022-07-03 20:22:00,,0824.1,5.00,0.00,29.3,27.1,00.0,37.9,31.1,25.3,0000.0,0010.04,0004.24,0003.76
2022-07-03 20:23:00,,0824.1,5.00,0.00,29.2,27.2,00.0,37.9,31.1,25.1,0000.0,0010.25,0004.27,0003.75
2022-07-03 20:24:00,,0824.1,5.01,0.00,29.2,27.4,00.0,37.9,31.1,25.3,0000.0,0011.13,0004.28,0003.75
2022-07-03 20:25:00,,0824.1,5.00,0.00,29.2,27.6,00.0,38.0,31.2,25.7,0000.0,0010.99,0004.27,0003.75
2022-07-03 20:26:00,,0824.1,5.01,0.00,29.3,27.8,00.0,38.0,31.2,26.6,0000.0,0011.13,0004.29,0003.75
2022-07-03 20:27:00,,0824.1,5.00,0.00,29.3,28.0,00.0,38.0,31.3,26.2,0000.0,0010.72,0004.25,0003.74
2022-07-03 20:28:00,,0824.1,5.00,0.00,29.3,28.2,00.0,38.0,31.3,25.9,0000.0,0010.66,0004.22,0003.73
2022-07-03 20:29:00,,0824.1,5.00,0.00,29.3,27.8,00.0,38.0,31.3,25.0,0000.0,0011.17,0004.22,0003.71
2022-07-03 20:30:00,,0824.1,5.01,0.00,29.3,27.2,00.0,37.9,31.2,25.9,0000.0,0011.29,0004.24,0003.69
2022-07-03 20:31:00,,0824.1,5.01,0.00,29.3,27.1,00.0,37.9,31.1,25.8,0000.0,0010.84,0004.25,0003.67
2022-07-03 20:32:00,,0824.1,5.00,0.00,29.2,27.2,00.0,37.9,31.1,26.1,0000.0,0011.55,0004.23,0003.66
2022-07-03 20:33:00,,0824.1,4.99,0.00,29.2,27.4,00.0,37.9,31.1,25.4,0000.0,0011.88,0004.23,0003.64
2022-07-03 20:34:00,,0824.1,5.00,0.00,29.2,27.6,00.0,37.9,31.1,25.4,0000.0,0012.68,0004.22,0003.63
2022-07-03 20:35:00,,0824.1,5.00,0.00,29.3,27.8,00.0,38.0,31.2,25.6,0000.0,0012.71,0004.19,0003.63
2022-07-03 20:36:00,,0824.1,5.01,0.00,29.3,28.0,00.0,38.0,31.3,25.4,0000.0,0012.54,0004.18,0003.62
2022-07-03 20:37:00,,0824.1,5.00,0.00,29.3,28.2,00.0,38.0,31.4,25.4,0000.0,0012.43,0004.13,0003.61
2022-07-03 20:38:00,,0824.0,5.00,0.00,29.3,27.8,00.0,38.0,31.3,25.2,0000.0,0012.34,0004.13,0003.60
2022-07-03 20:39:00,,0824.1,5.00,0.00,29.3,27.3,00.0,37.9,31.2,25.3,0000.0,0012.48,0004.13,0003.59
2022-07-03 20:40:00,,0824.0,4.99,0.00,29.3,27.2,00.0,37.9,31.1,25.2,0000.0,0012.10,0004.12,0003.58
2022-07-03 20:41:00,,0824.0,4.99,0.00,29.2,27.3,00.0,37.9,31.1,25.6,0000.0,0012.55,0004.12,0003.57
2022-07-03 20:42:00,,0824.0,5.00,0.00,29.2,27.5,00.0,37.9,31.1,25.6,0000.0,0012.65,0004.12,0003.56
2022-07-03 20:43:00,,0824.0,5.00,0.00,29.2,27.7,00.0,38.0,31.2,25.6,0000.0,0011.42,0004.09,0003.55
2022-07-03 20:44:00,,0824.0,5.01,0.00,29.3,27.9,00.0,38.0,31.2,25.7,0000.0,0010.35,0004.06,0003.54
2022-07-03 20:45:00,,0824.0,5.00,0.00,29.3,28.1,00.0,38.0,31.3,25.4,0000.0,0009.36,0004.02,0003.53
2022-07-03 20:46:00,,0824.0,5.00,0.00,29.3,28.1,00.0,38.0,31.3,25.1,0000.0,0008.53,0004.00,0003.51
2022-07-03 20:47:00,,0824.0,5.01,0.00,29.3,27.5,00.0,37.9,31.2,25.0,0000.0,0008.45,0003.96,0003.48
2022-07-03 20:48:00,,0824.0,5.00,0.00,29.3,27.1,00.0,37.9,31.1,25.3,0000.0,0008.36,0003.93,0003.46
2022-07-03 20:49:00,,0824.0,5.00,0.00,29.2,27.1,00.0,37.9,31.1,25.5,0000.0,0008.25,0003.90,0003.44
2022-07-03 20:50:00,,0824.0,5.00,0.00,29.2,27.2,00.0,37.9,31.0,25.7,0000.0,0008.61,0003.95,0003.44
2022-07-03 20:51:00,,0824.0,5.00,0.00,29.2,27.4,00.0,37.9,31.1,25.4,0000.0,0008.38,0003.91,0003.43
2022-07-03 20:52:00,,0824.0,5.00,0.00,29.2,27.6,00.0,37.9,31.1,25.0,0000.0,0007.77,0003.88,0003.41
2022-07-03 20:53:00,,0824.0,5.00,0.00,29.3,27.9,00.0,38.0,31.2,24.7,0000.0,0007.48,0003.85,0003.39
2022-07-03 20:54:00,,0824.0,4.99,0.00,29.3,28.1,00.0,38.0,31.3,24.7,0000.0,0007.48,0003.84,0003.37
2022-07-03 20:55:00,,0824.0,5.00,0.00,29.3,28.1,00.0,38.0,31.3,24.7,0000.0,0007.51,0003.84,0003.36
2022-07-03 20:56:00,,0824.0,5.01,0.00,29.3,27.5,00.0,37.9,31.2,24.6,0000.0,0007.62,0003.86,0003.34
2022-07-03 20:57:00,,0824.0,5.01,0.00,29.3,27.1,00.0,37.9,31.1,24.6,0000.0,0007.93,0003.86,0003.33
2022-07-03 20:58:00,,0824.1,5.00,0.00,29.2,27.1,00.0,37.9,31.1,25.1,0000.0,0007.94,0003.86,0003.33
2022-07-03 20:59:00,,0824.0,5.00,0.00,29.2,27.2,00.0,37.9,31.0,25.2,0000.0,0007.97,0003.87,0003.33
